HUN963 LOWS-LTFM

Flight info

Callsign HUN963
Flight time 2h 4m
Altitude 35000
Route INROM DCT NEMAL DCT LIMRA DCT SASAL DCT SOGMO DCT BABIT DCT OKLOP DCT NISVA DCT DEDIN DCT AYTEK
Aircraft B738/M-SDE2E3FGHIJ2J5RWXY/LB1

Departure

Time 2026-05-05 13:22
Airport Salzburg Airport (LOWS)

Arrival

Time 2026-05-05 15:26
Airport İstanbul Airport (LTFM)
Time Latitude Longitude Altitude Speed Heading
2026-05-05 13:00 47.79258 12.99822 1419 ft 0 kts 282°
2026-05-05 13:14 47.79258 12.99821 1419 ft 0 kts 282°
2026-05-05 13:15 47.79262 12.99812 1419 ft 2 kts 306°
2026-05-05 13:15 47.79275 12.99808 1419 ft 2 kts
2026-05-05 13:15 47.79285 12.99826 1419 ft 3 kts 55°
2026-05-05 13:15 47.79304 12.99879 1419 ft 9 kts 66°
2026-05-05 13:16 47.79334 12.99982 1419 ft 11 kts 67°
2026-05-05 13:16 47.79347 13.00091 1419 ft 11 kts 109°
2026-05-05 13:16 47.79289 13.00156 1419 ft 11 kts 158°
2026-05-05 13:16 47.79223 13.00196 1419 ft 10 kts 158°
2026-05-05 13:17 47.79158 13.00236 1419 ft 10 kts 158°
2026-05-05 13:17 47.79095 13.00274 1419 ft 10 kts 158°
2026-05-05 13:17 47.79033 13.00312 1419 ft 9 kts 158°
2026-05-05 13:17 47.78973 13.00348 1419 ft 9 kts 158°
2026-05-05 13:18 47.78915 13.00385 1419 ft 9 kts 152°
2026-05-05 13:18 47.78860 13.00427 1419 ft 9 kts 154°
2026-05-05 13:18 47.78789 13.00470 1419 ft 13 kts 158°
2026-05-05 13:18 47.78688 13.00531 1419 ft 17 kts 158°
2026-05-05 13:19 47.78577 13.00598 1419 ft 17 kts 157°
2026-05-05 13:19 47.78473 13.00667 1419 ft 16 kts 156°
2026-05-05 13:19 47.78373 13.00737 1419 ft 15 kts 149°
2026-05-05 13:19 47.78292 13.00791 1419 ft 12 kts 159°
2026-05-05 13:20 47.78219 13.00848 1419 ft 12 kts 136°
2026-05-05 13:20 47.78189 13.00956 1421 ft 11 kts 85°
2026-05-05 13:20 47.78213 13.01066 1420 ft 11 kts 48°
2026-05-05 13:20 47.78283 13.01056 1419 ft 11 kts 337°
2026-05-05 13:21 47.78425 13.00968 1419 ft 52 kts 337°
2026-05-05 13:21 47.78981 13.00609 1419 ft 123 kts 339°
2026-05-05 13:21 47.79966 13.00016 1476 ft 176 kts 339°
2026-05-05 13:21 47.81207 12.99275 1859 ft 210 kts 342°
2026-05-05 13:22 47.82622 12.98837 2698 ft 206 kts
2026-05-05 13:22 47.83888 12.99728 3564 ft 206 kts 38°
2026-05-05 13:22 47.85078 13.01141 3864 ft 234 kts 38°
2026-05-05 13:22 47.86438 13.02725 4148 ft 261 kts 38°
2026-05-05 13:23 47.87889 13.04395 4795 ft 271 kts 37°
2026-05-05 13:23 47.89411 13.06109 5584 ft 276 kts 37°
2026-05-05 13:23 47.90967 13.07833 6394 ft 279 kts 37°
2026-05-05 13:23 47.92552 13.09573 7130 ft 287 kts 37°
2026-05-05 13:24 47.94153 13.11316 7954 ft 289 kts 37°
2026-05-05 13:24 47.95794 13.13102 8737 ft 295 kts 37°
2026-05-05 13:24 47.97472 13.14927 9516 ft 300 kts 36°
2026-05-05 13:24 47.99060 13.16955 10217 ft 304 kts 53°
2026-05-05 13:25 48.00050 13.19816 10506 ft 322 kts 79°
2026-05-05 13:25 48.00050 13.23214 10696 ft 339 kts 107°
2026-05-05 13:25 47.99142 13.26530 11121 ft 350 kts 117°
2026-05-05 13:25 47.98075 13.29836 11753 ft 356 kts 117°
2026-05-05 13:26 47.96993 13.33186 12484 ft 359 kts 117°
2026-05-05 13:26 47.95913 13.36575 13178 ft 364 kts 117°
2026-05-05 13:26 47.94830 13.40034 13812 ft 369 kts 117°
2026-05-05 13:26 47.93760 13.43477 14432 ft 372 kts 117°
2026-05-05 13:27 47.92690 13.47011 15078 ft 375 kts 113°
2026-05-05 13:27 47.91955 13.50776 15716 ft 381 kts 103°
2026-05-05 13:27 47.91678 13.54732 16343 ft 387 kts 93°
2026-05-05 13:27 47.91650 13.58764 16953 ft 391 kts 92°
2026-05-05 13:28 47.91661 13.62853 17534 ft 396 kts 92°
2026-05-05 13:28 47.91675 13.66959 18157 ft 398 kts 92°
2026-05-05 13:28 47.91679 13.71119 18673 ft 401 kts 92°
2026-05-05 13:28 47.91673 13.75290 19209 ft 404 kts 92°
2026-05-05 13:29 47.91657 13.79491 19750 ft 406 kts 92°
2026-05-05 13:29 47.91636 13.83718 20313 ft 408 kts 92°
2026-05-05 13:29 47.91610 13.87970 20845 ft 411 kts 92°
2026-05-05 13:29 47.91582 13.92193 21357 ft 414 kts 92°
2026-05-05 13:30 47.91550 13.96510 21863 ft 417 kts 92°
2026-05-05 13:30 47.91517 14.00840 22380 ft 419 kts 92°
2026-05-05 13:30 47.91485 14.05174 22858 ft 422 kts 92°
2026-05-05 13:30 47.91454 14.09592 23309 ft 425 kts 92°
2026-05-05 13:31 47.91413 14.14011 23706 ft 427 kts 92°
2026-05-05 13:31 47.91371 14.18458 24068 ft 430 kts 92°
2026-05-05 13:31 47.91328 14.22902 24412 ft 433 kts 92°
2026-05-05 13:31 47.91284 14.27440 24779 ft 436 kts 92°
2026-05-05 13:32 47.91240 14.31902 25147 ft 438 kts 92°
2026-05-05 13:32 47.91193 14.36486 25516 ft 441 kts 92°
2026-05-05 13:32 47.91112 14.41067 25839 ft 443 kts 96°
2026-05-05 13:32 47.90637 14.45612 26138 ft 444 kts 105°
2026-05-05 13:33 47.89693 14.49969 26482 ft 444 kts 115°
2026-05-05 13:33 47.88476 14.54068 26839 ft 446 kts 116°
2026-05-05 13:33 47.87255 14.58054 27127 ft 449 kts 117°
2026-05-05 13:33 47.85922 14.62381 27440 ft 451 kts 116°
2026-05-05 13:34 47.84612 14.66649 27771 ft 454 kts 116°
2026-05-05 13:34 47.83309 14.70929 28058 ft 456 kts 116°
2026-05-05 13:34 47.82018 14.75194 28331 ft 459 kts 116°
2026-05-05 13:34 47.80689 14.79600 28598 ft 462 kts 116°
2026-05-05 13:35 47.79389 14.83915 28839 ft 465 kts 116°
2026-05-05 13:35 47.78044 14.88381 29115 ft 468 kts 116°
2026-05-05 13:35 47.76722 14.92761 29373 ft 470 kts 116°
2026-05-05 13:35 47.75375 14.97216 29597 ft 473 kts 116°
2026-05-05 13:36 47.74018 15.01695 29886 ft 475 kts 117°
2026-05-05 13:36 47.72677 15.06112 30251 ft 473 kts 117°
2026-05-05 13:36 47.71307 15.10621 30607 ft 472 kts 117°
2026-05-05 13:36 47.69955 15.15057 30945 ft 470 kts 117°
2026-05-05 13:37 47.68609 15.19466 31273 ft 469 kts 117°
2026-05-05 13:37 47.67262 15.23871 31638 ft 467 kts 117°
2026-05-05 13:37 47.65920 15.28249 31990 ft 466 kts 117°
2026-05-05 13:37 47.64594 15.32569 32330 ft 464 kts 117°
2026-05-05 13:38 47.63253 15.36930 32646 ft 463 kts 117°
2026-05-05 13:38 47.61914 15.41275 32944 ft 463 kts 118°
2026-05-05 13:38 47.60576 15.45612 33270 ft 462 kts 118°
2026-05-05 13:38 47.59237 15.49941 33609 ft 461 kts 118°
2026-05-05 13:39 47.57917 15.54205 33924 ft 459 kts 118°
2026-05-05 13:39 47.56580 15.58516 34134 ft 460 kts 118°
2026-05-05 13:39 47.55242 15.62821 34264 ft 462 kts 118°
2026-05-05 13:39 47.53902 15.67124 34458 ft 463 kts 118°
2026-05-05 13:40 47.52545 15.71476 34702 ft 462 kts 118°
2026-05-05 13:40 47.51199 15.75787 34835 ft 462 kts 118°
2026-05-05 13:40 47.48485 15.84455 34838 ft 465 kts 118°
2026-05-05 13:41 47.45750 15.93161 34842 ft 466 kts 118°
2026-05-05 13:41 47.43018 16.01827 34845 ft 467 kts 118°
2026-05-05 13:42 47.40259 16.10548 34842 ft 468 kts 118°
2026-05-05 13:42 47.37510 16.19210 34846 ft 467 kts 118°
2026-05-05 13:43 47.34754 16.27866 34841 ft 464 kts 118°
2026-05-05 13:43 47.32473 16.35007 34847 ft 461 kts 118°
2026-05-05 13:44 47.29288 16.44938 34867 ft 462 kts 119°
2026-05-05 13:44 47.26415 16.51529 34871 ft 459 kts 131°
2026-05-05 13:45 47.22353 16.58838 34875 ft 461 kts 133°
2026-05-05 13:45 47.18267 16.66123 34870 ft 463 kts 132°
2026-05-05 13:46 47.14187 16.73482 34877 ft 464 kts 132°
2026-05-05 13:46 47.10116 16.80859 34877 ft 464 kts 132°
2026-05-05 13:47 47.06079 16.88167 34884 ft 463 kts 132°
2026-05-05 13:47 47.02011 16.95507 34884 ft 462 kts 132°
2026-05-05 13:48 46.97948 17.02815 34900 ft 461 kts 132°
2026-05-05 13:48 46.93912 17.10054 34912 ft 461 kts 132°
2026-05-05 13:49 46.89854 17.17313 34921 ft 460 kts 132°
2026-05-05 13:49 46.85796 17.24554 34922 ft 460 kts 132°
2026-05-05 13:50 46.81727 17.31796 34931 ft 460 kts 132°
2026-05-05 13:50 46.77660 17.39015 34929 ft 461 kts 132°
2026-05-05 13:51 46.73605 17.46195 34929 ft 461 kts 132°
2026-05-05 13:51 46.69528 17.53394 34927 ft 461 kts 132°
2026-05-05 13:52 46.65430 17.60614 34921 ft 461 kts 132°
2026-05-05 13:52 46.61350 17.67783 34921 ft 462 kts 132°
2026-05-05 13:53 46.57328 17.75117 34916 ft 463 kts 130°
2026-05-05 13:53 46.53420 17.82504 34920 ft 464 kts 129°
2026-05-05 13:54 46.49478 17.89923 34918 ft 464 kts 130°
2026-05-05 13:54 46.45517 17.97316 34918 ft 464 kts 130°
2026-05-05 13:55 46.41542 18.04692 34923 ft 464 kts 130°
2026-05-05 13:55 46.37560 18.12062 34922 ft 464 kts 130°
2026-05-05 13:56 46.33581 18.19407 34926 ft 464 kts 130°
2026-05-05 13:56 46.29584 18.26766 34932 ft 464 kts 130°
2026-05-05 13:57 46.25612 18.34062 34938 ft 464 kts 130°
2026-05-05 13:57 46.21610 18.41393 34942 ft 464 kts 130°
2026-05-05 13:58 46.17607 18.48707 34942 ft 463 kts 130°
2026-05-05 13:58 46.13606 18.55999 34940 ft 463 kts 130°
2026-05-05 13:59 46.07608 18.66892 34934 ft 463 kts 130°
2026-05-05 14:00 46.01590 18.77783 34929 ft 463 kts 130°
2026-05-05 14:00 45.97576 18.85025 34934 ft 463 kts 130°
2026-05-05 14:01 45.93338 18.91897 34937 ft 461 kts 137°
2026-05-05 14:01 45.88725 18.98303 34929 ft 460 kts 138°
2026-05-05 14:02 45.84090 19.04661 34931 ft 460 kts 137°
2026-05-05 14:02 45.79483 19.11058 34936 ft 461 kts 137°
2026-05-05 14:03 45.74916 19.17441 34936 ft 461 kts 137°
2026-05-05 14:03 45.70314 19.23873 34935 ft 461 kts 137°
2026-05-05 14:04 45.65710 19.30292 34932 ft 462 kts 137°
2026-05-05 14:04 45.61135 19.36652 34929 ft 462 kts 137°
2026-05-05 14:05 45.56517 19.43055 34939 ft 463 kts 137°
2026-05-05 14:05 45.51888 19.49459 34941 ft 463 kts 137°
2026-05-05 14:06 45.47247 19.55863 34930 ft 463 kts 137°
2026-05-05 14:06 45.42634 19.62213 34940 ft 463 kts 137°
2026-05-05 14:07 45.37983 19.68600 34938 ft 464 kts 137°
2026-05-05 14:07 45.33365 19.74927 34947 ft 464 kts 137°
2026-05-05 14:08 45.28709 19.81290 34944 ft 464 kts 137°
2026-05-05 14:08 45.24037 19.87659 34950 ft 464 kts 137°
2026-05-05 14:09 45.19370 19.94008 34945 ft 465 kts 137°
2026-05-05 14:09 45.14703 20.00340 34949 ft 465 kts 137°
2026-05-05 14:10 45.10056 20.06632 34961 ft 464 kts 137°
2026-05-05 14:10 45.05375 20.12953 34966 ft 464 kts 137°
2026-05-05 14:11 45.00688 20.19267 34963 ft 465 kts 137°
2026-05-05 14:11 44.96034 20.25523 34967 ft 465 kts 137°
2026-05-05 14:12 44.91342 20.31815 34967 ft 465 kts 137°
2026-05-05 14:12 44.86639 20.38105 34970 ft 466 kts 137°
2026-05-05 14:13 44.81926 20.44395 34970 ft 466 kts 137°
2026-05-05 14:13 44.77213 20.50671 34967 ft 467 kts 137°
2026-05-05 14:14 44.72484 20.56952 34962 ft 467 kts 137°
2026-05-05 14:14 44.67786 20.63177 34963 ft 468 kts 137°
2026-05-05 14:15 44.63046 20.69444 34961 ft 468 kts 137°
2026-05-05 14:15 44.58296 20.75709 34959 ft 468 kts 137°
2026-05-05 14:16 44.53541 20.81966 34962 ft 468 kts 137°
2026-05-05 14:16 44.48816 20.88169 34962 ft 468 kts 137°
2026-05-05 14:17 44.44054 20.94405 34968 ft 468 kts 137°
2026-05-05 14:17 44.39294 21.00625 34970 ft 468 kts 137°
2026-05-05 14:18 44.34518 21.06851 34965 ft 468 kts 137°
2026-05-05 14:18 44.29774 21.13020 34966 ft 468 kts 137°
2026-05-05 14:19 44.24993 21.19224 34969 ft 469 kts 137°
2026-05-05 14:19 44.20208 21.25418 34974 ft 469 kts 137°
2026-05-05 14:20 44.15439 21.31577 34968 ft 469 kts 137°
2026-05-05 14:20 44.10644 21.37756 34976 ft 470 kts 137°
2026-05-05 14:21 44.05830 21.43944 34975 ft 470 kts 137°
2026-05-05 14:21 44.01014 21.50122 34981 ft 470 kts 137°
2026-05-05 14:22 43.96224 21.56250 34975 ft 471 kts 137°
2026-05-05 14:22 43.91401 21.62408 34987 ft 471 kts 137°
2026-05-05 14:23 43.86574 21.68557 34983 ft 471 kts 137°
2026-05-05 14:23 43.81732 21.74709 34981 ft 472 kts 137°
2026-05-05 14:24 43.76890 21.80848 34984 ft 472 kts 137°
2026-05-05 14:24 43.72069 21.86946 34986 ft 473 kts 137°
2026-05-05 14:25 43.67204 21.93087 34984 ft 473 kts 137°
2026-05-05 14:25 43.62332 21.99222 34996 ft 474 kts 137°
2026-05-05 14:26 43.57439 22.05368 34980 ft 474 kts 137°
2026-05-05 14:26 43.52586 22.11451 34987 ft 475 kts 137°
2026-05-05 14:27 43.47696 22.17566 35000 ft 475 kts 137°
2026-05-05 14:27 43.42791 22.23687 34985 ft 475 kts 137°
2026-05-05 14:28 43.37884 22.29796 35002 ft 475 kts 137°
2026-05-05 14:28 43.32966 22.35904 35000 ft 476 kts 137°
2026-05-05 14:29 43.28045 22.42003 35011 ft 476 kts 137°
2026-05-05 14:29 43.23140 22.48068 35004 ft 477 kts 137°
2026-05-05 14:30 43.18256 22.54093 35015 ft 477 kts 137°
2026-05-05 14:30 43.13341 22.60144 35011 ft 477 kts 137°
2026-05-05 14:31 43.09239 22.65183 35005 ft 477 kts 137°
2026-05-05 14:31 43.03482 22.72241 35005 ft 477 kts 137°
2026-05-05 14:32 42.99436 22.77384 35000 ft 477 kts 130°
2026-05-05 14:32 42.95739 22.84844 34999 ft 473 kts 112°
2026-05-05 14:33 42.93300 22.93173 35008 ft 472 kts 108°
2026-05-05 14:33 42.90952 23.01541 35017 ft 472 kts 108°
2026-05-05 14:34 42.88556 23.09896 35015 ft 473 kts 109°
2026-05-05 14:34 42.86125 23.18228 35040 ft 473 kts 109°
2026-05-05 14:35 42.83674 23.26573 35041 ft 474 kts 109°
2026-05-05 14:35 42.81230 23.34871 35047 ft 474 kts 109°
2026-05-05 14:36 42.78770 23.43201 35053 ft 474 kts 109°
2026-05-05 14:36 42.76300 23.51539 35047 ft 474 kts 109°
2026-05-05 14:37 42.73845 23.59802 35046 ft 474 kts 109°
2026-05-05 14:37 42.71369 23.68108 35039 ft 474 kts 109°
2026-05-05 14:38 42.68884 23.76418 35040 ft 473 kts 109°
2026-05-05 14:38 42.66392 23.84724 35030 ft 474 kts 109°
2026-05-05 14:39 42.63914 23.92961 35037 ft 473 kts 109°
2026-05-05 14:39 42.61416 24.01240 35026 ft 473 kts 109°
2026-05-05 14:40 42.58906 24.09505 35028 ft 473 kts 110°
2026-05-05 14:40 42.56250 24.17632 35027 ft 473 kts 111°
2026-05-05 14:41 42.53503 24.25772 35019 ft 473 kts 111°
2026-05-05 14:41 42.50775 24.33886 35018 ft 472 kts 111°
2026-05-05 14:42 42.48082 24.41932 35016 ft 472 kts 111°
2026-05-05 14:42 42.45373 24.50023 35023 ft 471 kts 111°
2026-05-05 14:43 42.42657 24.58117 35011 ft 471 kts 111°
2026-05-05 14:43 42.39954 24.66141 35007 ft 471 kts 111°
2026-05-05 14:44 42.37232 24.74198 35007 ft 470 kts 111°
2026-05-05 14:44 42.34502 24.82255 35003 ft 470 kts 111°
2026-05-05 14:45 42.31771 24.90294 35006 ft 470 kts 111°
2026-05-05 14:45 42.29031 24.98331 35003 ft 471 kts 111°
2026-05-05 14:46 42.26284 25.06367 35002 ft 471 kts 111°
2026-05-05 14:46 42.23551 25.14342 35002 ft 471 kts 111°
2026-05-05 14:47 42.20789 25.22374 35005 ft 471 kts 111°
2026-05-05 14:47 42.18022 25.30400 35010 ft 472 kts 111°
2026-05-05 14:48 42.15246 25.38427 35006 ft 472 kts 111°
2026-05-05 14:48 42.12477 25.46413 35008 ft 472 kts 112°
2026-05-05 14:49 42.09689 25.54427 35017 ft 472 kts 112°
2026-05-05 14:49 42.06894 25.62441 35002 ft 472 kts 112°
2026-05-05 14:50 42.04118 25.70378 35008 ft 471 kts 112°
2026-05-05 14:50 42.01320 25.78354 34999 ft 471 kts 112°
2026-05-05 14:51 41.98517 25.86323 34735 ft 475 kts 112°
2026-05-05 14:51 41.97119 25.90290 34318 ft 473 kts 112°
2026-05-05 14:51 41.95713 25.94269 33854 ft 468 kts 111°
2026-05-05 14:52 41.94319 25.98209 33368 ft 465 kts 111°
2026-05-05 14:52 41.92934 26.02118 32899 ft 460 kts 112°
2026-05-05 14:52 41.91565 26.05980 32447 ft 456 kts 112°
2026-05-05 14:52 41.90206 26.09807 32013 ft 452 kts 111°
2026-05-05 14:53 41.88854 26.13613 31589 ft 448 kts 111°
2026-05-05 14:53 41.87531 26.17331 31184 ft 444 kts 112°
2026-05-05 14:53 41.86203 26.21059 30751 ft 440 kts 112°
2026-05-05 14:53 41.84885 26.24755 30343 ft 437 kts 112°
2026-05-05 14:54 41.83578 26.28415 29905 ft 434 kts 111°
2026-05-05 14:54 41.82279 26.32048 29425 ft 430 kts 112°
2026-05-05 14:54 41.80986 26.35656 29001 ft 426 kts 111°
2026-05-05 14:54 41.79838 26.39271 28682 ft 417 kts 107°
2026-05-05 14:55 41.78865 26.42887 28369 ft 410 kts 105°
2026-05-05 14:55 41.77942 26.46479 28076 ft 405 kts 105°
2026-05-05 14:55 41.77005 26.50049 27789 ft 409 kts 105°
2026-05-05 14:55 41.76027 26.53662 27488 ft 414 kts 106°
2026-05-05 14:56 41.75018 26.57227 27171 ft 414 kts 110°
2026-05-05 14:56 41.73562 26.60616 26847 ft 414 kts 120°
2026-05-05 14:56 41.71953 26.63738 26563 ft 411 kts 122°
2026-05-05 14:56 41.70320 26.66869 26267 ft 409 kts 121°
2026-05-05 14:57 41.68816 26.70069 25921 ft 403 kts 116°
2026-05-05 14:57 41.67447 26.73330 25509 ft 401 kts 115°
2026-05-05 14:57 41.66124 26.76605 25050 ft 400 kts 115°
2026-05-05 14:57 41.64812 26.79880 24628 ft 398 kts 115°
2026-05-05 14:58 41.63500 26.83135 24245 ft 395 kts 115°
2026-05-05 14:58 41.62206 26.86316 23879 ft 392 kts 115°
2026-05-05 14:58 41.60900 26.89504 23483 ft 390 kts 115°
2026-05-05 14:58 41.59596 26.92666 23038 ft 388 kts 115°
2026-05-05 14:59 41.58295 26.95810 22616 ft 385 kts 115°
2026-05-05 14:59 41.57001 26.98929 22183 ft 383 kts 115°
2026-05-05 14:59 41.55706 27.02046 21758 ft 381 kts 115°
2026-05-05 14:59 41.54422 27.05129 21347 ft 378 kts 115°
2026-05-05 15:00 41.53146 27.08193 20933 ft 376 kts 115°
2026-05-05 15:00 41.52307 27.10205 20679 ft 374 kts 115°
2026-05-05 15:00 41.50617 27.14253 20146 ft 372 kts 115°
2026-05-05 15:00 41.49380 27.17213 19771 ft 370 kts 115°
2026-05-05 15:01 41.48113 27.20243 19375 ft 368 kts 115°
2026-05-05 15:01 41.46870 27.23210 18997 ft 366 kts 115°
2026-05-05 15:01 41.45645 27.26133 18641 ft 364 kts 115°
2026-05-05 15:01 41.44411 27.29074 18226 ft 363 kts 114°
2026-05-05 15:02 41.43178 27.32013 17790 ft 362 kts 114°
2026-05-05 15:02 41.41951 27.34930 17424 ft 358 kts 114°
2026-05-05 15:02 41.40736 27.37815 17072 ft 355 kts 114°
2026-05-05 15:02 41.39532 27.40674 16713 ft 353 kts 114°
2026-05-05 15:03 41.38334 27.43516 16365 ft 350 kts 114°
2026-05-05 15:03 41.37142 27.46339 16014 ft 348 kts 114°
2026-05-05 15:03 41.35962 27.49134 15683 ft 346 kts 114°
2026-05-05 15:03 41.34786 27.51915 15366 ft 343 kts 114°
2026-05-05 15:04 41.33627 27.54654 15053 ft 341 kts 114°
2026-05-05 15:04 41.32463 27.57402 14732 ft 340 kts 114°
2026-05-05 15:04 41.31305 27.60135 14416 ft 338 kts 114°
2026-05-05 15:04 41.30149 27.62860 14097 ft 337 kts 114°
2026-05-05 15:05 41.27847 27.68279 13433 ft 334 kts 114°
2026-05-05 15:05 41.26708 27.70955 13087 ft 331 kts 114°
2026-05-05 15:05 41.25597 27.73562 12771 ft 324 kts 114°
2026-05-05 15:06 41.24502 27.76125 12461 ft 315 kts 114°
2026-05-05 15:06 41.23426 27.78642 12162 ft 309 kts 114°
2026-05-05 15:06 41.22371 27.81114 11872 ft 306 kts 114°
2026-05-05 15:06 41.21325 27.83565 11600 ft 305 kts 114°
2026-05-05 15:07 41.20282 27.86008 11315 ft 303 kts 114°
2026-05-05 15:07 41.19240 27.88447 11033 ft 303 kts 114°
2026-05-05 15:07 41.18198 27.90881 10738 ft 302 kts 114°
2026-05-05 15:07 41.17160 27.93304 10460 ft 302 kts 114°
2026-05-05 15:08 41.16119 27.95732 10181 ft 302 kts 114°
2026-05-05 15:08 41.15085 27.98142 9884 ft 301 kts 114°
2026-05-05 15:08 41.14068 28.00506 9577 ft 297 kts 115°
2026-05-05 15:08 41.13040 28.02897 9266 ft 293 kts 115°
2026-05-05 15:09 41.12045 28.05206 8973 ft 290 kts 115°
2026-05-05 15:09 41.11045 28.07528 8708 ft 288 kts 115°
2026-05-05 15:09 41.10052 28.09834 8441 ft 287 kts 115°
2026-05-05 15:09 41.09062 28.12130 8159 ft 284 kts 115°
2026-05-05 15:10 41.08088 28.14384 7884 ft 278 kts 115°
2026-05-05 15:10 41.07136 28.16586 7626 ft 273 kts 115°
2026-05-05 15:10 41.06207 28.18737 7373 ft 271 kts 115°
2026-05-05 15:10 41.05276 28.20890 7122 ft 269 kts 115°
2026-05-05 15:11 41.04349 28.23034 6862 ft 267 kts 115°
2026-05-05 15:11 41.03424 28.25171 6610 ft 266 kts 115°
2026-05-05 15:11 41.02505 28.27292 6361 ft 262 kts 116°
2026-05-05 15:11 41.01605 28.29365 6092 ft 257 kts 116°
2026-05-05 15:12 41.00724 28.31396 5839 ft 252 kts 116°
2026-05-05 15:12 40.99853 28.33401 5607 ft 249 kts 116°
2026-05-05 15:12 40.98990 28.35388 5375 ft 249 kts 116°
2026-05-05 15:12 40.98127 28.37372 5143 ft 249 kts 116°
2026-05-05 15:13 40.97267 28.39352 5041 ft 249 kts 116°
2026-05-05 15:13 40.96416 28.41328 5009 ft 249 kts 116°
2026-05-05 15:13 40.95568 28.43296 4993 ft 243 kts 116°
2026-05-05 15:13 40.94741 28.45213 4995 ft 236 kts 116°
2026-05-05 15:14 40.93934 28.47086 4997 ft 233 kts 116°
2026-05-05 15:14 40.93128 28.48957 5032 ft 233 kts 116°
2026-05-05 15:14 40.92324 28.50821 5009 ft 233 kts 116°
2026-05-05 15:14 40.91521 28.52682 5004 ft 232 kts 116°
2026-05-05 15:15 40.90717 28.54539 5002 ft 232 kts 116°
2026-05-05 15:15 40.89922 28.56377 4999 ft 233 kts 116°
2026-05-05 15:15 40.89311 28.58307 4986 ft 222 kts 90°
2026-05-05 15:15 40.89468 28.60267 5006 ft 211 kts 69°
2026-05-05 15:16 40.89927 28.62099 5017 ft 210 kts 65°
2026-05-05 15:16 40.90416 28.63914 5013 ft 208 kts 66°
2026-05-05 15:16 40.90881 28.65667 4993 ft 201 kts 66°
2026-05-05 15:16 40.91338 28.67409 4997 ft 196 kts 66°
2026-05-05 15:17 40.91920 28.68980 4995 ft 189 kts 40°
2026-05-05 15:17 40.92960 28.69945 5007 ft 182 kts 26°
2026-05-05 15:17 40.94064 28.70758 5018 ft 181 kts 25°
2026-05-05 15:17 40.95171 28.71562 5011 ft 179 kts 26°
2026-05-05 15:18 40.95895 28.72090 5012 ft 173 kts 26°
2026-05-05 15:18 40.96933 28.72831 4995 ft 169 kts 19°
2026-05-05 15:18 40.98066 28.73059 5035 ft 165 kts
2026-05-05 15:18 40.99237 28.73158 5025 ft 170 kts
2026-05-05 15:19 41.00436 28.73213 5024 ft 173 kts 359°
2026-05-05 15:19 41.01627 28.73227 5022 ft 169 kts 359°
2026-05-05 15:19 41.02805 28.73221 4926 ft 172 kts 358°
2026-05-05 15:19 41.03991 28.73205 4716 ft 168 kts 358°
2026-05-05 15:20 41.05142 28.73186 4467 ft 162 kts 358°
2026-05-05 15:20 41.06250 28.73165 4287 ft 158 kts 358°
2026-05-05 15:20 41.07353 28.73143 4066 ft 159 kts 358°
2026-05-05 15:20 41.08458 28.73122 3855 ft 160 kts 358°
2026-05-05 15:21 41.09555 28.73103 3624 ft 154 kts 358°
2026-05-05 15:21 41.10609 28.73082 3431 ft 148 kts 358°
2026-05-05 15:21 41.11627 28.73060 3234 ft 147 kts 358°
2026-05-05 15:21 41.12623 28.73040 3074 ft 139 kts 359°
2026-05-05 15:22 41.13601 28.73023 2853 ft 141 kts 358°
2026-05-05 15:22 41.14589 28.73002 2651 ft 145 kts 359°
2026-05-05 15:22 41.15584 28.72983 2460 ft 140 kts 359°
2026-05-05 15:22 41.16571 28.72963 2276 ft 144 kts
2026-05-05 15:23 41.17570 28.72944 2060 ft 141 kts 359°
2026-05-05 15:23 41.18540 28.72923 1892 ft 141 kts 359°
2026-05-05 15:23 41.19530 28.72907 1684 ft 141 kts 359°
2026-05-05 15:23 41.20512 28.72887 1481 ft 141 kts 359°
2026-05-05 15:24 41.21492 28.72868 1302 ft 142 kts 359°
2026-05-05 15:24 41.22472 28.72848 1083 ft 140 kts 359°
2026-05-05 15:24 41.23427 28.72831 901 ft 136 kts 359°
2026-05-05 15:24 41.24362 28.72802 728 ft 136 kts 359°
2026-05-05 15:25 41.25322 28.72767 524 ft 140 kts
2026-05-05 15:25 41.26295 28.72767 366 ft 139 kts
2026-05-05 15:25 41.27234 28.72748 335 ft 127 kts
2026-05-05 15:25 41.27971 28.72733 330 ft 77 kts
2026-05-05 15:26 41.28213 28.72737 331 ft 19 kts
2026-05-05 15:26 41.28339 28.72787 332 ft 19 kts 22°
2026-05-05 15:26 41.28422 28.72835 331 ft 9 kts 25°
2026-05-05 15:26 41.28457 28.72868 333 ft 3 kts 36°
2026-05-05 15:27 41.28469 28.72892 332 ft 3 kts 72°
2026-05-05 15:27 41.28463 28.72929 332 ft 5 kts 111°
2026-05-05 15:27 41.28433 28.72952 332 ft 6 kts 173°
2026-05-05 15:27 41.28395 28.72952 332 ft 5 kts 185°
2026-05-05 15:28 41.28357 28.72951 330 ft 5 kts 179°
2026-05-05 15:28 41.28312 28.72952 332 ft 8 kts 179°
2026-05-05 15:28 41.28237 28.72954 330 ft 15 kts 179°
2026-05-05 15:28 41.28094 28.72958 333 ft 24 kts 179°
2026-05-05 15:29 41.27926 28.72963 333 ft 22 kts 179°
2026-05-05 15:29 41.27776 28.72967 332 ft 21 kts 179°
2026-05-05 15:29 41.27630 28.72971 329 ft 21 kts 179°
2026-05-05 15:29 41.27491 28.72974 331 ft 19 kts 179°
2026-05-05 15:30 41.27362 28.72978 333 ft 18 kts 179°
2026-05-05 15:30 41.27237 28.72982 330 ft 18 kts 179°
2026-05-05 15:30 41.27117 28.72986 333 ft 17 kts 179°
2026-05-05 15:30 41.27001 28.72989 331 ft 16 kts 179°
2026-05-05 15:31 41.26902 28.72992 332 ft 9 kts 177°
2026-05-05 15:31 41.26870 28.73029 331 ft 6 kts 116°
2026-05-05 15:31 41.26867 28.73082 332 ft 6 kts 88°
2026-05-05 15:31 41.26868 28.73134 330 ft 6 kts 88°
2026-05-05 15:32 41.26870 28.73186 332 ft 6 kts 88°
2026-05-05 15:32 41.26871 28.73237 330 ft 5 kts 88°
2026-05-05 15:32 41.26871 28.73286 329 ft 5 kts 90°
2026-05-05 15:32 41.26871 28.73342 332 ft 6 kts 90°
2026-05-05 15:33 41.26871 28.73399 332 ft 6 kts 94°
2026-05-05 15:33 41.26844 28.73436 331 ft 6 kts 161°
2026-05-05 15:33 41.26802 28.73441 333 ft 6 kts 177°
2026-05-05 15:33 41.26782 28.73441 329 ft 0 kts 179°